Location: Unspecified
(50.1700°N, 6.8600°E)
Time: 00:08:52
(UTC+00:00)

Cosmos 1908 - Pass Details

Date: 24 January 2019
Orbit: 514 x 531 km, 82.5° (Epoch: 17 February)

Event Time Altitude Azimuth Distance (km) Brightness Sun altitude
Rises 05:38:23 0° 198° (SSW) 2,619 6.7 -15.6°
Reaches altitude 10° 05:40:32 10° 202° (SSW) 1,738 5.8 -15.3°
Maximum altitude 05:44:17 58° 283° (WNW) 606 3.2 -14.7°
Drops below altitude 10° 05:48:06 10° 3° (N) 1,757 5.8 -14.1°
Sets 05:50:16 0° 8° (N) 2,652 6.7 -13.8°
